[[{"header":{"parameterUnit":"m.s-1","parameterCategory":1,"la1":30.2991,"la2":30.254,"lo1":-89.0895,"lo2":-89.0444,"dy":0.0017,"dx":0.0017,"nx":28,"ny":28,"refTime":"2024-02-19T09:00:00:Z","depth":0,"parameterNumber":2,"parameterNumberName":"U-component_of_WINDS"},"data":[0,0,0,0,0,0,0,0,0,0,0,0,0,0,0,0,0,0,0,0,0,0,0,0,0,0,0,0,0,0,0,0,0,0,0,0,0,0,0,0,0,0,0,0,0,0,0,0,0,0,0,0,0,0,0,0,0,0,0.712,0.7121,0,0.7235,0.7236,0.7237,0.7285,0.7285,0.7285,0.7285,0.7403,0.7406,0.7409,0,0,0,0,0,0,0,0,0,0,0,0,0,0.6943,0.6946,0.712,0.7122,0.7123,0.7235,0.7236,0.7238,0.7285,0.7285,0.7285,0.7284,0.7401,0.7405,0.7409,0,0,0,0,0,0,0,0,0,0,0,0,0,0.7035,0.6947,0.712,0.716,0.7165,0.7234,0.7236,0.7238,0.7285,0.7285,0.7285,0.7284,0.74,0.7405,0.741,0.7448,0,0,0.7425,0.7428,0,0,0,0,0,0,0,0,0.703,0.7041,0.7153,0.7158,0.7163,0.7245,0.7217,0.7309,0.7285,0.724,0.7285,0.7284,0.7351,0.736,0.7382,0.7454,0.7459,0.7426,0.7429,0.7431,0.7432,0,0,0,0,0,0,0,0.7023,0.7037,0.7166,0.7154,0.7161,0.7173,0.7185,0.7235,0.7296,0.7244,0.7247,0.726,0.7353,0.7377,0.7385,0.746,0.7426,0.743,0.7433,0.7435,0.7568,0.7569,0,0,0,0,0,0,0.701,0.7031,0.7162,0.7169,0.7094,0.7176,0.719,0.7219,0.7295,0.7306,0.726,0.7262,0.7369,0.7379,0.7389,0.7439,0.7431,0.7436,0.7439,0.7568,0.7569,0.7569,0,0,0,0,0,0,0.7006,0.7021,0.7157,0.7101,0.7119,0.7179,0.7212,0.7222,0.7245,0.7308,0.7319,0.7273,0.7369,0.7382,0.7433,0.7443,0.7438,0.7443,0.7567,0.7568,0.7569,0.7538,0,0,0,0,0,0,0.7001,0.702,0.7035,0.7101,0.7122,0.7199,0.7212,0.7224,0.7254,0.7257,0.7323,0.7334,0.7369,0.7425,0.7438,0.745,0.7447,0.7567,0.7568,0.7569,0.7538,0.7537,0.7536,0,0,0,0,0,0.6994,0.7021,0.7035,0.7051,0.7142,0.7199,0.7211,0.7252,0.7255,0.727,0.731,0.7332,0.744,0.743,0.7445,0.7459,0.7566,0.7567,0.7569,0.7538,0.7537,0.7536,0,0,0,0,0,0,0.6955,0.7031,0.7047,0.7096,0.7141,0.7207,0.7228,0.725,0.7295,0.7296,0.7344,0.7359,0.7405,0.7437,0.7424,0.7499,0.7505,0.7509,0.7477,0.7476,0.7476,0.7467,0.7451,0,0,0,0,0,0.6952,0.6992,0.7056,0.7094,0.7115,0.7168,0.7194,0.7221,0.727,0.7289,0.7333,0.7379,0.7423,0.7452,0.7496,0.7543,0.7558,0.756,0.7559,0.7558,0.7561,0.7588,0.7589,0.7573,0.7573,0.7573,0,0,0.6947,0.6993,0.7015,0.7087,0.7125,0.7165,0.7183,0.7225,0.7256,0.7295,0.7346,0.7379,0.7434,0.7482,0.7506,0.7511,0.7569,0.7559,0.7558,0.7562,0.7589,0.759,0.7592,0.7574,0.7574,0.7573,0,0,0.6957,0.6996,0.7032,0.7069,0.7126,0.716,0.7168,0.7232,0.7255,0.7306,0.7337,0.7374,0.7449,0.7487,0.7516,0.754,0.7561,0.7553,0.7549,0.7575,0.7576,0.7577,0.7586,0.7588,0.7556,0.7556,0.7556,0,0.6943,0.7005,0.7047,0.7087,0.7118,0.7155,0.7191,0.7225,0.7294,0.7314,0.7318,0.7413,0.7453,0.751,0.7516,0.7538,0.7549,0.7546,0.7572,0.7574,0.7576,0.7584,0.7587,0.7554,0.7554,0.7555,0.7555,0,0.6985,0.7027,0.7049,0.7114,0.7147,0.7184,0.7232,0.726,0.7284,0.7319,0.737,0.7418,0.7473,0.7489,0.7513,0.755,0.7551,0.7563,0.757,0.7575,0.7584,0.7588,0.7552,0.7553,0.7553,0.7554,0,0,0.6975,0.7061,0.7069,0.7098,0.7163,0.7197,0.7236,0.7289,0.7312,0.7358,0.7392,0.7455,0.7466,0.7499,0.7528,0.755,0.7565,0.756,0.7562,0.7559,0.7609,0.7599,0.7602,0.758,0.7581,0.7581,0.7604,0,0.6994,0.7066,0.7105,0.716,0.72,0.7235,0.7269,0.7313,0.7346,0.7384,0.742,0.7464,0.7475,0.7495,0.7519,0.7558,0.7576,0.7557,0.7612,0.7614,0.7597,0.7607,0.7598,0.7617,0.7608,0.7608,0.7609,0,0.7026,0.7071,0.713,0.719,0.7208,0.7238,0.729,0.7326,0.7376,0.7398,0.7434,0.7462,0.7505,0.7508,0.7567,0.7554,0.7578,0.7601,0.7603,0.7609,0.7612,0.7614,0.7624,0.7627,0.7615,0.7614,0.7614,0,0.7012,0.7087,0.7133,0.7157,0.7228,0.7248,0.7278,0.7328,0.7357,0.7402,0.7422,0.7471,0.7498,0.7536,0.7576,0.7575,0.7632,0.7638,0.7652,0.765,0.7662,0.7661,0.7676,0.7678,0.7678,0.7678,0.7678,0,0.703,0.7065,0.7127,0.7155,0.7195,0.7239,0.7277,0.7311,0.7354,0.7389,0.7423,0.7455,0.7507,0.7545,0.7577,0.7621,0.7633,0.7653,0.7661,0.765,0.7647,0.7667,0.7666,0.7678,0.7678,0.7678,0.7678,0,0.7021,0.7065,0.7116,0.7179,0.7195,0.7222,0.7276,0.7304,0.7338,0.7382,0.7395,0.7448,0.7495,0.7539,0.7602,0.7624,0.7668,0.7679,0.7651,0.7656,0.7666,0.7665,0.7695,0.7701,0.7698,0.7698,0.7698,0,0.703,0.7057,0.7123,0.7148,0.7178,0.7219,0.7249,0.7293,0.7323,0.7381,0.7402,0.7451,0.7493,0.7566,0.7611,0.7659,0.7671,0.7678,0.7679,0.7667,0.7671,0.7669,0.7672,0.7678,0.7677,0.7677,0.7677,0,0.704,0.706,0.7101,0.715,0.7185,0.7226,0.7267,0.7286,0.7339,0.737,0.7418,0.7451,0.7514,0.7563,0.7616,0.7648,0.7671,0.7676,0.7682,0.7671,0.7654,0.7663,0.7649,0.7676,0.7676,0.7676,0.7676,0.7676,0.704,0.7066,0.7116,0.7161,0.7197,0.7235,0.7265,0.7302,0.7343,0.7398,0.7422,0.747,0.7519,0.7593,0.7624,0.7663,0.7668,0.7676,0.7678,0.768,0.7677,0.7647,0.7673,0.7673,0.7673,0.7673,0.7673,0,0.7052,0.7086,0.7127,0.7184,0.7219,0.7238,0.7285,0.7313,0.7356,0.7399,0.7439,0.7494,0.7541,0.7589,0.7639,0.7661,0.7673,0.7672,0.7671,0.7678,0.767,0.766,0.7662,0.7662,0.7662,0.7662,0.7662,0.7662,0.7062,0.7107,0.7133,0.7196,0.7229,0.7277,0.7302,0.7338,0.7372,0.7432,0.7471,0.7502,0.7547,0.76,0.7644,0.7657,0.7674,0.767,0.7686,0.7678,0.7679,0.7679,0.767,0.7674,0.7674,0.7691,0.7692,0.7692]},{"header":{"parameterUnit":"m.s-1","parameterCategory":1,"la1":30.2991,"la2":30.254,"lo1":-89.0895,"lo2":-89.0444,"dy":0.0017,"dx":0.0017,"nx":28,"ny":28,"refTime":"2024-02-19T09:00:00:Z","depth":0,"parameterNumber":3,"parameterNumberName":"V-component_of_WINDS"},"data":[0,0,0,0,0,0,0,0,0,0,0,0,0,0,0,0,0,0,0,0,0,0,0,0,0,0,0,0,0,0,0,0,0,0,0,0,0,0,0,0,0,0,0,0,0,0,0,0,0,0,0,0,0,0,0,0,0,0,0.0867,0.0867,0,0.0912,0.0913,0.0913,0.0924,0.0924,0.0924,0.0923,0.0969,0.097,0.0971,0,0,0,0,0,0,0,0,0,0,0,0,0,0.0787,0.0789,0.0867,0.0867,0.0868,0.0912,0.0913,0.0913,0.0924,0.0924,0.0923,0.0923,0.0968,0.097,0.0972,0,0,0,0,0,0,0,0,0,0,0,0,0,0.0826,0.0789,0.0867,0.0879,0.088,0.0912,0.0913,0.0914,0.0924,0.0924,0.0923,0.0923,0.0967,0.097,0.0972,0.0995,0,0,0.0979,0.098,0,0,0,0,0,0,0,0,0.0824,0.0829,0.0876,0.0878,0.088,0.0912,0.0901,0.0941,0.0924,0.0907,0.0923,0.0923,0.095,0.0954,0.0963,0.0997,0.0999,0.0979,0.098,0.0981,0.0982,0,0,0,0,0,0,0,0.0821,0.0827,0.0885,0.0877,0.0879,0.0881,0.0886,0.0909,0.0931,0.0909,0.091,0.0915,0.0951,0.0961,0.0964,0.0999,0.0979,0.0981,0.0982,0.0983,0.1053,0.1054,0,0,0,0,0,0,0.0817,0.0825,0.0883,0.0886,0.085,0.0883,0.0889,0.0902,0.093,0.0934,0.0915,0.0915,0.0957,0.0962,0.0966,0.0994,0.0981,0.0983,0.0985,0.1053,0.1053,0.1054,0,0,0,0,0,0,0.0815,0.0822,0.0881,0.0856,0.0864,0.0885,0.09,0.0903,0.0913,0.0935,0.0939,0.0922,0.0957,0.0963,0.0987,0.0996,0.0984,0.0986,0.1052,0.1053,0.1054,0.1051,0,0,0,0,0,0,0.0813,0.0821,0.0831,0.0856,0.0865,0.0903,0.09,0.0904,0.0917,0.0918,0.0943,0.0946,0.0957,0.0984,0.099,0.0999,0.0988,0.1051,0.1052,0.1053,0.1051,0.1052,0.1053,0,0,0,0,0,0.081,0.0828,0.0831,0.0838,0.0877,0.0903,0.0908,0.0921,0.0918,0.0927,0.0941,0.0945,0.0994,0.0986,0.0993,0.1003,0.1051,0.1052,0.1053,0.105,0.1052,0.1053,0,0,0,0,0,0,0.0803,0.0832,0.0835,0.0862,0.088,0.0905,0.0917,0.0922,0.0941,0.0941,0.0955,0.0961,0.0984,0.0996,0.0987,0.1026,0.1022,0.1025,0.1018,0.1019,0.102,0.1017,0.099,0,0,0,0,0,0.0804,0.0824,0.0848,0.0869,0.0878,0.0896,0.0908,0.0916,0.0935,0.0943,0.0958,0.0976,0.0996,0.1008,0.1027,0.1052,0.1057,0.1062,0.1063,0.1064,0.1066,0.108,0.1082,0.1058,0.1058,0.1058,0,0,0.0808,0.0826,0.0837,0.0868,0.0883,0.0902,0.0902,0.0923,0.0937,0.0945,0.097,0.0982,0.1003,0.1028,0.1039,0.1038,0.1074,0.1065,0.1066,0.1068,0.1081,0.1083,0.1085,0.1058,0.1058,0.1058,0,0,0.0824,0.084,0.0859,0.0874,0.0897,0.0909,0.0913,0.0937,0.0946,0.097,0.0977,0.0994,0.1027,0.1041,0.1053,0.1074,0.1078,0.1079,0.1085,0.1098,0.11,0.1102,0.1109,0.1112,0.1081,0.1081,0.1081,0,0.0826,0.0855,0.0869,0.0889,0.0902,0.0911,0.093,0.0944,0.0971,0.098,0.0978,0.1019,0.1034,0.1062,0.1067,0.1076,0.1081,0.1077,0.1099,0.1101,0.1103,0.111,0.1112,0.1081,0.1081,0.1081,0.1081,0,0.0856,0.0876,0.0889,0.0916,0.093,0.095,0.0965,0.0978,0.0985,0.0996,0.1021,0.1039,0.1061,0.1068,0.1075,0.1097,0.1096,0.1096,0.1093,0.1105,0.1112,0.1114,0.1081,0.1081,0.1081,0.1081,0,0,0.087,0.0903,0.0908,0.092,0.0945,0.0961,0.098,0.1002,0.1013,0.1031,0.1048,0.1075,0.1075,0.1088,0.1097,0.1108,0.1123,0.1107,0.1108,0.1109,0.1148,0.1148,0.1151,0.1126,0.1126,0.1127,0.1146,0,0.0889,0.0925,0.0937,0.0967,0.0986,0.0994,0.1011,0.1028,0.1039,0.1056,0.1068,0.1087,0.1086,0.1094,0.1106,0.1119,0.1131,0.1117,0.1141,0.1141,0.1136,0.1154,0.1154,0.1172,0.1149,0.115,0.115,0,0.0917,0.0936,0.0968,0.099,0.0998,0.1013,0.1034,0.1051,0.1069,0.1077,0.1091,0.1098,0.1118,0.1113,0.114,0.1131,0.1141,0.1149,0.115,0.1152,0.1147,0.1158,0.1178,0.1181,0.1154,0.1154,0.1154,0,0.0924,0.0957,0.098,0.099,0.1017,0.1027,0.1039,0.1057,0.107,0.1088,0.1096,0.1116,0.1127,0.1142,0.1154,0.1149,0.118,0.1176,0.1186,0.1186,0.1193,0.1192,0.1215,0.1199,0.1199,0.1198,0.1198,0,0.0945,0.0964,0.0984,0.0998,0.1019,0.1033,0.1053,0.1065,0.1081,0.1097,0.1105,0.112,0.1135,0.1151,0.116,0.1181,0.1186,0.1192,0.1194,0.1192,0.1191,0.1199,0.1198,0.1199,0.1199,0.1199,0.1199,0,0.0956,0.0971,0.0996,0.1019,0.1026,0.104,0.106,0.1073,0.1084,0.1105,0.111,0.1127,0.1147,0.1161,0.1186,0.1192,0.1215,0.1217,0.1208,0.121,0.1219,0.1218,0.1248,0.1252,0.1233,0.1233,0.1233,0,0.0969,0.0983,0.1008,0.102,0.1031,0.105,0.1063,0.1076,0.1088,0.1111,0.1122,0.1142,0.1159,0.119,0.1204,0.1223,0.1226,0.1235,0.1229,0.1225,0.1226,0.1225,0.1226,0.1236,0.1236,0.1236,0.1236,0,0.0989,0.0995,0.1014,0.1034,0.1049,0.1066,0.1083,0.1092,0.1108,0.1122,0.1142,0.1155,0.1181,0.1201,0.1221,0.1232,0.1237,0.1238,0.1242,0.1239,0.1234,0.1237,0.1211,0.1238,0.1237,0.1237,0.1237,0.1237,0.1001,0.1015,0.1034,0.1054,0.1068,0.1084,0.1097,0.111,0.1128,0.115,0.1157,0.1178,0.1195,0.1223,0.1234,0.1251,0.125,0.1255,0.1256,0.1257,0.1257,0.1231,0.1254,0.1254,0.1254,0.1254,0.1254,0,0.1022,0.1035,0.1053,0.1077,0.1092,0.1095,0.1114,0.1126,0.1145,0.1162,0.1178,0.1201,0.122,0.1236,0.1256,0.1265,0.1268,0.127,0.127,0.1272,0.1257,0.1252,0.1268,0.1268,0.1268,0.1268,0.1268,0.1268,0.1035,0.1058,0.1066,0.1095,0.1108,0.1129,0.1139,0.1153,0.1166,0.1192,0.1208,0.1218,0.1234,0.1255,0.1272,0.1276,0.1283,0.1285,0.1289,0.1275,0.1273,0.1272,0.1267,0.1286,0.1286,0.1303,0.1303,0.1303]}]]